[[{"header":{"parameterUnit":"m.s-1","parameterCategory":2,"la1":30.2991,"la2":30.254,"lo1":-89.0895,"lo2":-89.0444,"dy":0.0017,"dx":0.0017,"nx":28,"ny":28,"refTime":"2023-10-27T21:00:00:Z","depth":"0","parameterNumber":2,"parameterNumberName":"U-component_of_CURRENTS"},"data":[0,0,0,0,0,0,0,0,0,0,0,0,0,0,0,0,0,0,0,0,0,0,0,0,0,0,0,0,0,0,0,0,0,0,0,0,0,0,0,0,0,0,0,0,0,0,0,0,0,0,0,0,0,0,0,0,0,0,-0.1554,-0.1555,0,-0.1588,-0.1589,-0.1589,-0.1545,-0.1544,-0.1542,-0.1541,-0.1463,-0.1463,-0.1462,0,0,0,0,0,0,0,0,0,0,0,0,0,-0.1513,-0.1514,-0.1554,-0.1555,-0.1555,-0.1588,-0.1589,-0.1589,-0.1545,-0.1543,-0.1542,-0.154,-0.1463,-0.1463,-0.1462,0,0,0,0,0,0,0,0,0,0,0,0,0,-0.1537,-0.1514,-0.1554,-0.1538,-0.1537,-0.1588,-0.1589,-0.1589,-0.1546,-0.1543,-0.1541,-0.1539,-0.1464,-0.1463,-0.1462,-0.1501,0,0,-0.1459,-0.1458,0,0,0,0,0,0,0,0,-0.1535,-0.1538,-0.154,-0.1539,-0.1538,-0.1561,-0.1546,-0.1555,-0.1546,-0.1542,-0.1541,-0.1538,-0.1488,-0.1485,-0.1497,-0.1498,-0.1494,-0.1459,-0.1458,-0.1458,-0.1458,0,0,0,0,0,0,0,-0.1534,-0.1537,-0.1567,-0.1541,-0.154,-0.1551,-0.1551,-0.1548,-0.1524,-0.1542,-0.1539,-0.1545,-0.1486,-0.1498,-0.1494,-0.1493,-0.1459,-0.1458,-0.1457,-0.1457,-0.1514,-0.1516,0,0,0,0,0,0,-0.1531,-0.1535,-0.1566,-0.1568,-0.1532,-0.1553,-0.1553,-0.1555,-0.1527,-0.1521,-0.1547,-0.1543,-0.1501,-0.1495,-0.1491,-0.1555,-0.1458,-0.1457,-0.1456,-0.1512,-0.1514,-0.1516,0,0,0,0,0,0,-0.153,-0.1533,-0.1564,-0.1553,-0.1558,-0.1556,-0.1559,-0.1557,-0.156,-0.1532,-0.1523,-0.155,-0.1499,-0.1492,-0.1496,-0.155,-0.1456,-0.1456,-0.1509,-0.1512,-0.1515,-0.167,0,0,0,0,0,0,-0.1528,-0.1533,-0.1547,-0.1553,-0.1558,-0.1603,-0.1561,-0.1559,-0.1568,-0.1563,-0.1532,-0.1523,-0.1496,-0.1498,-0.1495,-0.1547,-0.1455,-0.1506,-0.1511,-0.1514,-0.1662,-0.1678,-0.1692,0,0,0,0,0,-0.1527,-0.1563,-0.1547,-0.1552,-0.1573,-0.1605,-0.1609,-0.1599,-0.1571,-0.1589,-0.1566,-0.1524,-0.1521,-0.15,-0.1496,-0.1548,-0.1505,-0.1509,-0.1514,-0.1656,-0.1675,-0.1691,0,0,0,0,0,0,-0.1559,-0.1562,-0.1545,-0.158,-0.1591,-0.1597,-0.1626,-0.1606,-0.1606,-0.1599,-0.1552,-0.1544,-0.1565,-0.1535,-0.1513,-0.1575,-0.1506,-0.151,-0.1615,-0.1633,-0.1647,-0.1679,-0.1454,0,0,0,0,0,-0.1572,-0.16,-0.1593,-0.1629,-0.1632,-0.1626,-0.164,-0.1631,-0.1628,-0.1625,-0.1602,-0.1584,-0.1587,-0.1589,-0.1579,-0.162,-0.159,-0.1649,-0.1664,-0.1676,-0.1699,-0.1704,-0.1722,-0.1532,-0.1532,-0.1532,0,0,-0.1603,-0.1606,-0.1626,-0.1639,-0.1647,-0.1691,-0.1629,-0.1661,-0.1705,-0.1618,-0.1666,-0.1628,-0.1605,-0.1648,-0.1656,-0.1629,-0.1714,-0.1682,-0.1694,-0.171,-0.1711,-0.173,-0.1746,-0.1535,-0.1534,-0.1534,0,0,-0.1684,-0.1671,-0.1719,-0.1731,-0.1745,-0.1749,-0.1755,-0.1757,-0.1762,-0.1801,-0.175,-0.1749,-0.1752,-0.1755,-0.1756,-0.1846,-0.1783,-0.1833,-0.1948,-0.1953,-0.1969,-0.1983,-0.1969,-0.1981,-0.1852,-0.1852,-0.1853,0,-0.1719,-0.1764,-0.1742,-0.1788,-0.1817,-0.1777,-0.1838,-0.1856,-0.1861,-0.1874,-0.1835,-0.1847,-0.1817,-0.188,-0.1912,-0.1884,-0.1862,-0.1886,-0.1974,-0.1987,-0.1999,-0.1981,-0.1991,-0.186,-0.186,-0.1859,-0.1858,0,-0.183,-0.1863,-0.1896,-0.1939,-0.1974,-0.2017,-0.203,-0.2055,-0.2045,-0.2047,-0.2082,-0.2047,-0.2043,-0.2047,-0.2013,-0.2084,-0.2033,-0.1984,-0.1934,-0.2028,-0.2002,-0.201,-0.1872,-0.1869,-0.1867,-0.1865,0,0,-0.1873,-0.196,-0.1963,-0.1993,-0.2049,-0.2075,-0.2171,-0.2222,-0.2251,-0.2265,-0.2303,-0.233,-0.2267,-0.2263,-0.2211,-0.2236,-0.2292,-0.2158,-0.2154,-0.2152,-0.2292,-0.2158,-0.2152,-0.2255,-0.2257,-0.2259,-0.2242,0,-0.195,-0.2059,-0.2098,-0.2198,-0.2233,-0.2258,-0.2339,-0.2382,-0.2392,-0.2411,-0.2401,-0.24,-0.2363,-0.2335,-0.2368,-0.2275,-0.2321,-0.23,-0.2195,-0.2192,-0.2068,-0.216,-0.2002,-0.1966,-0.225,-0.2251,-0.2252,0,-0.1994,-0.2066,-0.2179,-0.2276,-0.2298,-0.2359,-0.2438,-0.2509,-0.2549,-0.2554,-0.2573,-0.2521,-0.2541,-0.2483,-0.2466,-0.2446,-0.2406,-0.2363,-0.2359,-0.2188,-0.2073,-0.1917,-0.1969,-0.1974,-0.2263,-0.2262,-0.2261,0,-0.1937,-0.2091,-0.218,-0.2216,-0.2341,-0.2392,-0.2458,-0.2525,-0.2552,-0.2606,-0.2595,-0.2628,-0.2576,-0.2575,-0.2482,-0.2468,-0.2448,-0.24,-0.227,-0.2258,-0.2081,-0.2049,-0.213,-0.2446,-0.2447,-0.2447,-0.2447,0,-0.1926,-0.1963,-0.2151,-0.2168,-0.2249,-0.2366,-0.2425,-0.2485,-0.2557,-0.2522,-0.2624,-0.2565,-0.2594,-0.256,-0.252,-0.2403,-0.2476,-0.2313,-0.2258,-0.2127,-0.2101,-0.2057,-0.2084,-0.2446,-0.2446,-0.2446,-0.2446,0,-0.1733,-0.1887,-0.1948,-0.2132,-0.2186,-0.221,-0.2342,-0.2347,-0.2483,-0.2434,-0.2438,-0.2499,-0.2432,-0.2475,-0.2429,-0.2393,-0.2277,-0.2293,-0.2131,-0.2057,-0.1893,-0.1932,-0.1927,-0.1879,-0.2128,-0.2125,-0.2122,0,-0.1616,-0.165,-0.1842,-0.185,-0.19,-0.1996,-0.2016,-0.2227,-0.2227,-0.2316,-0.2238,-0.2258,-0.2133,-0.2112,-0.209,-0.2057,-0.2128,-0.1945,-0.1901,-0.1891,-0.1895,-0.1928,-0.1892,-0.1731,-0.1725,-0.172,-0.1717,0,-0.1356,-0.1438,-0.1481,-0.1544,-0.1578,-0.1638,-0.1705,-0.1718,-0.1894,-0.1901,-0.1808,-0.1743,-0.1748,-0.1632,-0.1713,-0.1687,-0.187,-0.1841,-0.1884,-0.165,-0.164,-0.156,-0.1738,-0.1675,-0.1679,-0.1682,-0.1684,-0.1686,-0.1102,-0.1076,-0.1168,-0.1199,-0.1228,-0.1216,-0.122,-0.1275,-0.1276,-0.128,-0.1324,-0.1259,-0.1307,-0.1338,-0.1342,-0.1397,-0.1485,-0.1391,-0.1456,-0.1505,-0.1418,-0.1498,-0.1333,-0.1335,-0.1337,-0.1338,-0.134,0,-0.084,-0.0851,-0.0823,-0.0882,-0.0827,-0.0951,-0.0964,-0.0963,-0.0887,-0.0893,-0.0841,-0.0849,-0.0825,-0.0987,-0.1071,-0.1054,-0.1072,-0.1109,-0.1155,-0.1149,-0.1247,-0.1187,-0.0917,-0.0917,-0.0917,-0.0917,-0.0917,-0.0917,-0.0701,-0.0628,-0.0659,-0.0526,-0.0536,-0.0494,-0.0482,-0.0458,-0.0489,-0.044,-0.0497,-0.055,-0.0761,-0.0958,-0.1005,-0.0976,-0.1021,-0.0957,-0.107,-0.1175,-0.1208,-0.124,-0.1193,-0.0929,-0.0929,-0.0884,-0.0884,-0.0884]},{"header":{"parameterUnit":"m.s-1","parameterCategory":2,"la1":30.2991,"la2":30.254,"lo1":-89.0895,"lo2":-89.0444,"dy":0.0017,"dx":0.0017,"nx":28,"ny":28,"refTime":"2023-10-27T21:00:00:Z","depth":"0","parameterNumber":3,"parameterNumberName":"V-component_of_CURRENTS"},"data":[0,0,0,0,0,0,0,0,0,0,0,0,0,0,0,0,0,0,0,0,0,0,0,0,0,0,0,0,0,0,0,0,0,0,0,0,0,0,0,0,0,0,0,0,0,0,0,0,0,0,0,0,0,0,0,0,0,0,0.0173,0.0174,0,0.0214,0.0215,0.0215,0.0233,0.0233,0.0233,0.0233,0.0266,0.0267,0.0268,0,0,0,0,0,0,0,0,0,0,0,0,0,0.0164,0.0164,0.0173,0.0174,0.0174,0.0214,0.0215,0.0215,0.0233,0.0233,0.0233,0.0233,0.0266,0.0267,0.0268,0,0,0,0,0,0,0,0,0,0,0,0,0,0.0183,0.0164,0.0173,0.0188,0.0189,0.0214,0.0215,0.0215,0.0233,0.0233,0.0233,0.0233,0.0265,0.0267,0.0268,0.0281,0,0,0.0273,0.0273,0,0,0,0,0,0,0,0,0.0182,0.0184,0.0185,0.0187,0.0188,0.0218,0.0223,0.0237,0.0233,0.0217,0.0233,0.0233,0.0249,0.0252,0.0261,0.0283,0.0284,0.0273,0.0274,0.0275,0.0275,0,0,0,0,0,0,0,0.0181,0.0182,0.019,0.0185,0.0188,0.021,0.0212,0.0226,0.0234,0.0219,0.022,0.0223,0.025,0.0259,0.0262,0.0285,0.0273,0.0274,0.0275,0.0276,0.0327,0.0328,0,0,0,0,0,0,0.0171,0.0181,0.0189,0.0191,0.0184,0.021,0.0212,0.0209,0.0234,0.0238,0.0223,0.0224,0.0257,0.026,0.0263,0.0284,0.0274,0.0276,0.0277,0.0327,0.0327,0.0328,0,0,0,0,0,0,0.0171,0.0172,0.0187,0.0187,0.019,0.021,0.0206,0.021,0.0218,0.0238,0.0241,0.0227,0.0257,0.0261,0.0272,0.0285,0.0277,0.0278,0.0326,0.0327,0.0328,0.0324,0,0,0,0,0,0,0.017,0.0171,0.0166,0.0186,0.019,0.0192,0.0207,0.0211,0.022,0.0221,0.0242,0.0245,0.0257,0.027,0.0274,0.0287,0.0279,0.0326,0.0326,0.0327,0.0323,0.0324,0.0325,0,0,0,0,0,0.017,0.0151,0.0166,0.0167,0.0182,0.0192,0.0195,0.021,0.022,0.0218,0.0236,0.0244,0.0279,0.0271,0.0276,0.029,0.0325,0.0326,0.0327,0.0323,0.0324,0.0325,0,0,0,0,0,0,0.0136,0.0152,0.0168,0.0154,0.0172,0.0194,0.0191,0.0209,0.0223,0.0224,0.0246,0.025,0.0266,0.0277,0.0269,0.0308,0.0305,0.0307,0.0301,0.0302,0.0303,0.0293,0.028,0,0,0,0,0,0.0131,0.0126,0.0148,0.0139,0.0145,0.0173,0.0179,0.0192,0.0208,0.0214,0.0231,0.0252,0.0275,0.0286,0.03,0.032,0.0315,0.0334,0.0335,0.0335,0.0331,0.0337,0.0337,0.0331,0.0331,0.0331,0,0,0.0116,0.0124,0.0122,0.0134,0.0149,0.0156,0.0175,0.018,0.0194,0.0215,0.023,0.025,0.0279,0.03,0.031,0.0311,0.0332,0.0337,0.0337,0.0332,0.0338,0.0338,0.0339,0.0332,0.0332,0.0332,0,0,0.0082,0.0092,0.0081,0.0096,0.0116,0.0136,0.0137,0.0161,0.0177,0.0196,0.0221,0.0247,0.0273,0.0303,0.0322,0.0338,0.0333,0.0344,0.0346,0.0352,0.0352,0.0352,0.0333,0.0332,0.035,0.035,0.035,0,0.0063,0.0054,0.0078,0.0078,0.0088,0.0126,0.0123,0.0149,0.0176,0.019,0.0195,0.0252,0.0278,0.0319,0.033,0.034,0.0329,0.0339,0.0352,0.0352,0.0352,0.0333,0.0332,0.035,0.035,0.035,0.035,0,0.0028,0.0027,0.002,0.0038,0.0055,0.0053,0.0097,0.0116,0.0143,0.017,0.0206,0.0246,0.0277,0.0302,0.0323,0.035,0.0335,0.0347,0.0346,0.0352,0.0332,0.033,0.0349,0.0349,0.0349,0.0349,0,0,-0.0033,-0.0012,-0.0011,-0.0008,0.0032,0.0038,0.0072,0.0105,0.0118,0.0162,0.0176,0.0246,0.0265,0.0288,0.0324,0.0346,0.0345,0.0347,0.0348,0.0322,0.0332,0.0422,0.0429,0.0354,0.0354,0.0354,0.0311,0,-0.0069,-0.0089,-0.0055,-0.0056,-0.0064,-0.0005,0.0021,0.0065,0.0101,0.0121,0.0187,0.0208,0.0262,0.0272,0.0306,0.0329,0.0343,0.0354,0.0335,0.0334,0.0409,0.0432,0.0465,0.0439,0.031,0.031,0.0309,0,-0.0111,-0.012,-0.0137,-0.0109,-0.0104,-0.0092,-0.0047,-0.0017,0.0042,0.0069,0.0116,0.0151,0.0203,0.0236,0.0286,0.0285,0.0307,0.033,0.0328,0.0414,0.0423,0.0415,0.0441,0.0524,0.0307,0.0307,0.0307,0,-0.0172,-0.017,-0.0188,-0.018,-0.0143,-0.0132,-0.0105,-0.0043,-0.0006,0.0027,0.0045,0.0099,0.0124,0.0165,0.0249,0.0245,0.0293,0.0287,0.0387,0.0392,0.0419,0.0428,0.0522,0.0314,0.0314,0.0314,0.0314,0,-0.0223,-0.0234,-0.0226,-0.0234,-0.0243,-0.0195,-0.0177,-0.0141,-0.0083,-0.0029,0.0007,0.0056,0.0109,0.0162,0.0216,0.0315,0.0268,0.0391,0.0399,0.042,0.0429,0.0504,0.0532,0.0312,0.0313,0.0313,0.0313,0,-0.0269,-0.0268,-0.0285,-0.0274,-0.027,-0.0273,-0.0209,-0.0183,-0.0139,-0.0073,-0.0062,0.0008,0.0079,0.0148,0.021,0.0286,0.0422,0.0403,0.0423,0.0437,0.0614,0.0641,0.0737,0.0795,0.0474,0.0476,0.0478,0,-0.0295,-0.0313,-0.0317,-0.0322,-0.0316,-0.0307,-0.0277,-0.0217,-0.0158,-0.0068,-0.0025,0.003,0.0124,0.0238,0.0347,0.0436,0.0506,0.0537,0.0562,0.0646,0.0679,0.0698,0.074,0.0569,0.0572,0.0574,0.0575,0,-0.0331,-0.0328,-0.0336,-0.0351,-0.0341,-0.032,-0.0269,-0.023,-0.0124,-0.0044,0.0079,0.0137,0.0241,0.0369,0.048,0.0548,0.0623,0.0584,0.0659,0.0769,0.0803,0.0855,0.0553,0.0593,0.0591,0.059,0.0589,0.0588,-0.034,-0.0354,-0.0354,-0.0363,-0.035,-0.0314,-0.0273,-0.0173,-0.0059,0.0098,0.0154,0.0256,0.0383,0.0544,0.0637,0.0813,0.0777,0.0865,0.0883,0.089,0.0991,0.0742,0.0817,0.0817,0.0816,0.0816,0.0816,0,-0.0334,-0.0342,-0.0358,-0.0353,-0.0325,-0.0321,-0.0236,-0.016,0.001,0.0135,0.0282,0.0397,0.0598,0.0715,0.0954,0.1083,0.1098,0.1146,0.1153,0.1177,0.0938,0.0991,0.1124,0.1124,0.1124,0.1124,0.1124,0.1124,-0.0325,-0.0329,-0.034,-0.0313,-0.0304,-0.0243,-0.0189,-0.0068,0.0033,0.0216,0.0296,0.0333,0.0491,0.0999,0.1277,0.1313,0.1402,0.142,0.1464,0.1273,0.1246,0.1221,0.1281,0.1472,0.1472,0.1695,0.1697,0.1699]}],[{"header":{"parameterUnit":"m.s-1","parameterCategory":2,"la1":30.2991,"la2":30.254,"lo1":-89.0895,"lo2":-89.0444,"dy":0.0017,"dx":0.0017,"nx":28,"ny":28,"refTime":"2023-10-27T21:00:00:Z","depth":"2","parameterNumber":2,"parameterNumberName":"U-component_of_CURRENTS"},"data":[0,0,0,0,0,0,0,0,0,0,0,0,0,0,0,0,0,0,0,0,0,0,0,0,0,0,0,0,0,0,0,0,0,0,0,0,0,0,0,0,0,0,0,0,0,0,0,0,0,0,0,0,0,0,0,0,0,0,-0.1105,-0.1105,0,-0.1041,-0.104,-0.1039,-0.0998,-0.0998,-0.0999,-0.0999,-0.0965,-0.0964,-0.0963,0,0,0,0,0,0,0,0,0,0,0,0,0,-0.1064,-0.1065,-0.1105,-0.1105,-0.1105,-0.1042,-0.104,-0.1039,-0.0998,-0.0998,-0.0999,-0.0999,-0.0965,-0.0964,-0.0963,0,0,0,0,0,0,0,0,0,0,0,0,0,-0.1045,-0.1066,-0.1106,-0.1081,-0.1078,-0.1042,-0.104,-0.1038,-0.0998,-0.0998,-0.0999,-0.0999,-0.0966,-0.0964,-0.0962,-0.0946,0,0,-0.0957,-0.0957,0,0,0,0,0,0,0,0,-0.1046,-0.1046,-0.1085,-0.1082,-0.1079,-0.1033,-0.1013,-0.1011,-0.0998,-0.1023,-0.0999,-0.0999,-0.0993,-0.0989,-0.0969,-0.0944,-0.0942,-0.0957,-0.0956,-0.0955,-0.0955,0,0,0,0,0,0,0,-0.1047,-0.1047,-0.1075,-0.1084,-0.1081,-0.1029,-0.1027,-0.1011,-0.1004,-0.1021,-0.1019,-0.102,-0.0991,-0.0971,-0.0968,-0.0942,-0.0957,-0.0956,-0.0955,-0.0954,-0.0963,-0.0965,0,0,0,0,0,0,-0.1072,-0.105,-0.1077,-0.1074,-0.1069,-0.103,-0.1028,-0.1043,-0.1003,-0.0999,-0.102,-0.1018,-0.0973,-0.097,-0.0967,-0.0971,-0.0955,-0.0954,-0.0953,-0.0962,-0.0964,-0.0965,0,0,0,0,0,0,-0.1072,-0.1076,-0.108,-0.1063,-0.106,-0.1032,-0.1048,-0.1042,-0.1019,-0.1003,-0.0998,-0.1004,-0.0973,-0.0969,-0.0979,-0.0968,-0.0953,-0.0952,-0.0961,-0.0963,-0.0964,-0.0962,0,0,0,0,0,0,-0.1071,-0.1076,-0.1093,-0.1065,-0.1063,-0.1068,-0.1048,-0.1041,-0.1022,-0.1019,-0.0988,-0.0985,-0.0973,-0.0982,-0.0978,-0.0966,-0.095,-0.0959,-0.0962,-0.0964,-0.0961,-0.0964,-0.0966,0,0,0,0,0,-0.107,-0.1101,-0.1095,-0.1098,-0.1088,-0.1069,-0.1061,-0.1037,-0.1021,-0.1016,-0.1012,-0.0986,-0.0993,-0.0982,-0.0976,-0.0964,-0.0958,-0.0961,-0.0964,-0.0959,-0.0963,-0.0966,0,0,0,0,0,0,-0.1101,-0.1099,-0.1092,-0.1124,-0.11,-0.1064,-0.1072,-0.1036,-0.1022,-0.1034,-0.1,-0.0998,-0.099,-0.0995,-0.0982,-0.0979,-0.0971,-0.0973,-0.097,-0.0973,-0.0976,-0.098,-0.0949,0,0,0,0,0,-0.1115,-0.114,-0.1114,-0.1144,-0.1139,-0.1099,-0.1087,-0.1068,-0.1054,-0.1045,-0.1048,-0.1041,-0.0996,-0.1002,-0.0986,-0.0994,-0.1032,-0.0987,-0.0989,-0.0991,-0.0995,-0.1041,-0.1048,-0.0974,-0.0974,-0.0974,0,0,-0.1141,-0.1143,-0.116,-0.1152,-0.1141,-0.1137,-0.1093,-0.1092,-0.1074,-0.1048,-0.107,-0.1044,-0.0998,-0.0997,-0.0996,-0.1003,-0.1045,-0.0995,-0.0996,-0.0999,-0.1045,-0.1052,-0.1058,-0.0976,-0.0976,-0.0976,0,0,-0.119,-0.1206,-0.1227,-0.1217,-0.1205,-0.1179,-0.1176,-0.1161,-0.1137,-0.1148,-0.1102,-0.108,-0.1084,-0.1029,-0.0993,-0.1007,-0.1043,-0.1015,-0.1044,-0.1088,-0.1095,-0.11,-0.1207,-0.1222,-0.1034,-0.1034,-0.1034,0,-0.1228,-0.1244,-0.1228,-0.124,-0.1238,-0.1199,-0.1201,-0.117,-0.1166,-0.1148,-0.1175,-0.1131,-0.1084,-0.1007,-0.101,-0.1003,-0.1079,-0.1023,-0.1091,-0.1097,-0.1103,-0.121,-0.1227,-0.1035,-0.1035,-0.1035,-0.1034,0,-0.1262,-0.1289,-0.1309,-0.1312,-0.1297,-0.1311,-0.1263,-0.126,-0.1249,-0.1224,-0.1193,-0.1157,-0.1131,-0.1099,-0.105,-0.1042,-0.1102,-0.1072,-0.1076,-0.111,-0.1222,-0.1239,-0.1035,-0.1035,-0.1035,-0.1035,0,0,-0.1327,-0.1334,-0.1347,-0.1362,-0.1339,-0.1342,-0.1305,-0.1257,-0.126,-0.1255,-0.1261,-0.115,-0.1154,-0.1114,-0.1058,-0.1085,-0.1173,-0.1113,-0.1115,-0.1211,-0.1356,-0.1183,-0.1186,-0.1177,-0.1179,-0.118,-0.1435,0,-0.1363,-0.1395,-0.1381,-0.1426,-0.1429,-0.1393,-0.1376,-0.133,-0.1311,-0.1335,-0.1239,-0.1242,-0.1148,-0.1162,-0.1156,-0.1161,-0.1214,-0.1112,-0.1316,-0.1323,-0.1156,-0.1195,-0.1062,-0.1257,-0.1452,-0.1455,-0.1457,0,-0.1375,-0.1402,-0.142,-0.147,-0.1476,-0.1492,-0.147,-0.1464,-0.1421,-0.1418,-0.1382,-0.1352,-0.1315,-0.1278,-0.1316,-0.1276,-0.1319,-0.1341,-0.1351,-0.1194,-0.1178,-0.1247,-0.1281,-0.1486,-0.1484,-0.1482,-0.148,0,-0.1362,-0.1438,-0.1451,-0.1466,-0.1495,-0.1497,-0.1523,-0.1481,-0.1487,-0.1488,-0.1533,-0.148,-0.1516,-0.1517,-0.1495,-0.1452,-0.1607,-0.1551,-0.1447,-0.1441,-0.1361,-0.1339,-0.1622,-0.1621,-0.1621,-0.162,-0.1619,0,-0.1361,-0.1392,-0.1465,-0.1474,-0.1519,-0.1548,-0.1591,-0.1581,-0.1622,-0.1605,-0.16,-0.1578,-0.1589,-0.163,-0.1597,-0.157,-0.1688,-0.1463,-0.1475,-0.1359,-0.1335,-0.1541,-0.1528,-0.163,-0.1628,-0.1626,-0.1624,0,-0.1273,-0.133,-0.1366,-0.1453,-0.1487,-0.1513,-0.1626,-0.1634,-0.1722,-0.1708,-0.1719,-0.1738,-0.1732,-0.1755,-0.1804,-0.1711,-0.1698,-0.1673,-0.1553,-0.1538,-0.1501,-0.1485,-0.1591,-0.1586,-0.1582,-0.1579,-0.1577,0,-0.12,-0.1205,-0.1321,-0.132,-0.135,-0.1436,-0.1441,-0.1601,-0.1602,-0.1712,-0.1666,-0.1754,-0.1616,-0.1691,-0.1609,-0.1592,-0.1658,-0.1486,-0.1287,-0.1486,-0.149,-0.148,-0.147,-0.1256,-0.1251,-0.1247,-0.1244,0,-0.1038,-0.1088,-0.1105,-0.1136,-0.1166,-0.1226,-0.1285,-0.1328,-0.1446,-0.1477,-0.1423,-0.1372,-0.1425,-0.1293,-0.1353,-0.1298,-0.145,-0.1388,-0.1692,-0.1209,-0.1168,-0.1171,-0.1174,-0.1207,-0.1211,-0.1213,-0.1215,-0.1217,-0.0879,-0.0863,-0.0891,-0.0913,-0.0939,-0.0928,-0.0941,-0.0983,-0.1,-0.1004,-0.1072,-0.1015,-0.1125,-0.1027,-0.1018,-0.1067,-0.1115,-0.109,-0.1106,-0.1126,-0.0965,-0.091,-0.088,-0.0882,-0.0883,-0.0884,-0.0886,0,-0.0675,-0.0676,-0.0658,-0.0683,-0.0648,-0.074,-0.0746,-0.0732,-0.0656,-0.069,-0.0646,-0.0643,-0.0593,-0.0757,-0.0719,-0.0701,-0.0738,-0.0715,-0.0775,-0.0809,-0.084,-0.0667,-0.0503,-0.0502,-0.0502,-0.0501,0,0,-0.0555,-0.0486,-0.0509,-0.0397,-0.0406,-0.0358,-0.0337,-0.0294,-0.0318,-0.0272,-0.0316,-0.0408,-0.0587,-0.05,-0.0524,-0.0493,-0.0637,-0.0471,-0.0765,-0.0858,-0.0887,-0.1034,-0.08,0,0,0,0,0]},{"header":{"parameterUnit":"m.s-1","parameterCategory":2,"la1":30.2991,"la2":30.254,"lo1":-89.0895,"lo2":-89.0444,"dy":0.0017,"dx":0.0017,"nx":28,"ny":28,"refTime":"2023-10-27T21:00:00:Z","depth":"2","parameterNumber":3,"parameterNumberName":"V-component_of_CURRENTS"},"data":[0,0,0,0,0,0,0,0,0,0,0,0,0,0,0,0,0,0,0,0,0,0,0,0,0,0,0,0,0,0,0,0,0,0,0,0,0,0,0,0,0,0,0,0,0,0,0,0,0,0,0,0,0,0,0,0,0,0,-0.0004,-0.0005,0,-0.0042,-0.0042,-0.0043,-0.0081,-0.0082,-0.0082,-0.0082,-0.0043,-0.0041,-0.004,0,0,0,0,0,0,0,0,0,0,0,0,0,0.0022,0.0021,-0.0004,-0.0005,-0.0005,-0.0042,-0.0042,-0.0043,-0.0081,-0.0082,-0.0082,-0.0083,-0.0043,-0.0041,-0.004,0,0,0,0,0,0,0,0,0,0,0,0,0,-0.0002,0.0021,-0.0004,-0.0027,-0.003,-0.0042,-0.0042,-0.0043,-0.0081,-0.0082,-0.0082,-0.0083,-0.0044,-0.0041,-0.0039,-0.0015,0,0,-0.0033,-0.0032,0,0,0,0,0,0,0,0,-0.0,-0.0003,-0.0024,-0.0026,-0.0028,-0.0056,-0.0019,-0.0029,-0.0081,-0.0063,-0.0082,-0.0083,-0.0038,-0.0037,-0.0046,-0.0013,-0.0011,-0.0033,-0.0031,-0.0031,-0.003,0,0,0,0,0,0,0,0.0002,-0.0001,-0.0021,-0.0024,-0.0027,-0.004,-0.0044,-0.0021,-0.0047,-0.0065,-0.0067,-0.0069,-0.0039,-0.0048,-0.0045,-0.0011,-0.0033,-0.0031,-0.003,-0.0029,0.0015,0.0015,0,0,0,0,0,0,0.0011,0.0,-0.002,-0.0022,-0.0014,-0.004,-0.0044,-0.0048,-0.0049,-0.005,-0.0068,-0.007,-0.0051,-0.0047,-0.0044,-0.0048,-0.0031,-0.0029,-0.0027,0.0015,0.0015,0.0015,0,0,0,0,0,0,0.0011,0.0009,-0.0018,-0.001,-0.0014,-0.0039,-0.0043,-0.0048,-0.006,-0.0052,-0.0052,-0.0075,-0.0052,-0.0047,-0.0047,-0.0045,-0.0028,-0.0026,0.0015,0.0015,0.0015,-0.0035,0,0,0,0,0,0,0.0012,0.0009,0.0009,-0.001,-0.0015,-0.0054,-0.0043,-0.0049,-0.0059,-0.0062,-0.0057,-0.0054,-0.0052,-0.005,-0.0045,-0.0042,-0.0024,0.0015,0.0015,0.0015,-0.0033,-0.0037,-0.004,0,0,0,0,0,0.0013,-0.0003,0.0009,0.0007,-0.0014,-0.0055,-0.0061,-0.008,-0.0058,-0.0086,-0.0075,-0.0055,-0.0047,-0.0049,-0.0042,-0.0039,0.0015,0.0015,0.0015,-0.0032,-0.0036,-0.004,0,0,0,0,0,0,0.0003,-0.0008,0.0004,-0.0013,-0.0038,-0.0062,-0.0076,-0.0076,-0.0087,-0.0075,-0.0061,-0.006,-0.0062,-0.0039,-0.0041,-0.0026,-0.0009,-0.0008,-0.0046,-0.005,-0.0054,-0.0052,-0.0022,0,0,0,0,0,0.0007,-0.0005,-0.002,-0.0034,-0.0039,-0.0048,-0.006,-0.0072,-0.0081,-0.0087,-0.0071,-0.0053,-0.0056,-0.0046,-0.0043,-0.0027,0.0013,-0.0018,-0.0021,-0.0024,-0.0018,0.0039,0.0041,0.0014,0.0014,0.0014,0,0,-0.0001,-0.0006,-0.0013,-0.0036,-0.0043,-0.0063,-0.0059,-0.0081,-0.0094,-0.0075,-0.0072,-0.0067,-0.0057,-0.0061,-0.0056,-0.004,0.0003,-0.0024,-0.0027,-0.0019,0.0039,0.0042,0.0044,0.0014,0.0014,0.0014,0,0,-0.003,-0.0022,-0.0041,-0.0055,-0.0068,-0.0076,-0.008,-0.0091,-0.0096,-0.0097,-0.009,-0.0086,-0.0066,-0.0072,-0.0069,-0.0079,-0.0025,-0.0069,-0.0074,-0.0021,-0.0018,-0.0015,0.0032,0.0039,-0.0061,-0.0061,-0.0061,0,-0.0035,-0.0051,-0.0058,-0.0074,-0.0077,-0.0078,-0.0095,-0.0107,-0.0116,-0.0106,-0.0101,-0.0069,-0.0073,-0.0072,-0.0096,-0.0087,-0.0045,-0.0065,-0.0025,-0.0021,-0.0017,0.003,0.0039,-0.0063,-0.0063,-0.0063,-0.0062,0,-0.0075,-0.008,-0.0092,-0.0102,-0.0117,-0.0133,-0.0139,-0.0143,-0.0124,-0.0119,-0.0104,-0.0102,-0.0077,-0.0086,-0.0104,-0.008,-0.0058,-0.0045,-0.0015,-0.0017,0.0032,0.0043,-0.0067,-0.0066,-0.0065,-0.0064,0,0,-0.01,-0.0115,-0.0114,-0.0113,-0.0123,-0.0141,-0.0151,-0.0161,-0.0141,-0.0136,-0.0102,-0.0129,-0.0098,-0.0094,-0.0093,-0.0064,-0.0028,-0.0049,-0.0045,-0.0005,0.0096,0.0113,0.0126,-0.0002,0.0,0.0001,0.0116,0,-0.0121,-0.0147,-0.0148,-0.0165,-0.0176,-0.0168,-0.017,-0.0173,-0.0156,-0.0124,-0.0109,-0.0085,-0.0107,-0.0088,-0.0065,-0.0041,-0.0001,-0.006,0.0093,0.0098,0.0112,0.0139,0.01,0.0199,0.0126,0.0128,0.0129,0,-0.0156,-0.0164,-0.0184,-0.0175,-0.0174,-0.0186,-0.0165,-0.0167,-0.0136,-0.0112,-0.0076,-0.005,-0.0031,-0.0032,0.0039,0.0006,0.0047,0.0073,0.0079,0.0123,0.0135,0.0192,0.0222,0.0147,0.0146,0.0144,0.0143,0,-0.0175,-0.0184,-0.0195,-0.0195,-0.0194,-0.0195,-0.0189,-0.0165,-0.0149,-0.0099,-0.0066,-0.0015,0.001,0.0074,0.01,0.0086,0.0196,0.0195,0.0258,0.026,0.0272,0.0272,0.0274,0.0274,0.0274,0.0273,0.0273,0,-0.0201,-0.0212,-0.0205,-0.0214,-0.022,-0.0201,-0.0191,-0.0177,-0.0124,-0.0088,-0.0055,-0.0011,0.0038,0.0096,0.0138,0.0227,0.0238,0.027,0.0298,0.0252,0.0249,0.0238,0.0232,0.0278,0.0277,0.0276,0.0275,0,-0.0244,-0.0235,-0.0255,-0.0242,-0.0242,-0.0249,-0.0224,-0.0201,-0.0147,-0.0095,-0.0077,-0.0009,0.0072,0.013,0.023,0.027,0.0356,0.0387,0.0321,0.0339,0.0379,0.0369,0.0495,0.0496,0.0498,0.0499,0.05,0,-0.028,-0.0288,-0.0289,-0.0299,-0.0304,-0.0303,-0.0295,-0.0238,-0.0201,-0.0091,-0.006,0.0027,0.0093,0.0241,0.0314,0.0425,0.0411,0.0468,0.0432,0.0391,0.0405,0.0393,0.0382,0.0427,0.0427,0.0427,0.0427,0,-0.0338,-0.0329,-0.0336,-0.0351,-0.0357,-0.0358,-0.0331,-0.0302,-0.0204,-0.014,-0.002,0.0049,0.0177,0.0275,0.0391,0.0444,0.0446,0.048,0.0479,0.0369,0.0334,0.0345,0.0335,0.043,0.043,0.0429,0.0429,0.0429,-0.0375,-0.0392,-0.0379,-0.0397,-0.0399,-0.0384,-0.0369,-0.0303,-0.0227,-0.0105,-0.0042,0.0058,0.0173,0.0316,0.0415,0.0491,0.0497,0.0514,0.051,0.0507,0.0471,0.044,0.0549,0.0549,0.055,0.055,0.055,0,-0.04,-0.0401,-0.0421,-0.0422,-0.0414,-0.0411,-0.0361,-0.0323,-0.0216,-0.0132,-0.0036,0.0047,0.0175,0.0294,0.042,0.0518,0.0482,0.0529,0.0465,0.0463,0.0461,0.0419,0.0485,0.0485,0.0486,0.0486,0,0,-0.0407,-0.0417,-0.042,-0.0415,-0.0414,-0.0383,-0.0348,-0.0288,-0.0218,-0.0151,-0.0085,-0.0015,0.0162,0.0239,0.0355,0.043,0.0415,0.0423,0.0464,0.0372,0.0369,0.0442,0.0374,0,0,0,0,0]}],[{"header":{"parameterUnit":"m.s-1","parameterCategory":2,"la1":30.2991,"la2":30.254,"lo1":-89.0895,"lo2":-89.0444,"dy":0.0017,"dx":0.0017,"nx":28,"ny":28,"refTime":"2023-10-27T21:00:00:Z","depth":"4","parameterNumber":2,"parameterNumberName":"U-component_of_CURRENTS"},"data":[0,0,0,0,0,0,0,0,0,0,0,0,0,0,0,0,0,0,0,0,0,0,0,0,0,0,0,0,0,0,0,0,0,0,0,0,0,0,0,0,0,0,0,0,0,0,0,0,0,0,0,0,0,0,0,0,0,0,-0.0218,-0.0219,0,-0.0288,-0.0289,-0.029,-0.0316,-0.0316,-0.0316,-0.0315,-0.0323,-0.0324,-0.0324,0,0,0,0,0,0,0,0,0,0,0,0,0,-0.0193,-0.0193,-0.0218,-0.0219,-0.0219,-0.0288,-0.029,-0.0291,-0.0316,-0.0316,-0.0315,-0.0315,-0.0323,-0.0324,-0.0324,0,0,0,0,0,0,0,0,0,0,0,0,0,-0.0229,-0.0193,-0.0218,-0.0239,-0.0241,-0.0288,-0.029,-0.0291,-0.0317,-0.0316,-0.0315,-0.0315,-0.0323,-0.0324,-0.0325,-0.0343,0,0,-0.0327,-0.0328,0,0,0,0,0,0,0,0,-0.0227,-0.023,-0.0235,-0.0238,-0.024,-0.0291,-0.0284,-0.0305,-0.0317,-0.029,-0.0315,-0.0314,-0.0306,-0.0308,-0.0327,-0.0343,-0.0344,-0.0327,-0.0328,-0.0328,-0.0329,0,0,0,0,0,0,0,-0.0224,-0.0228,-0.0248,-0.0236,-0.0239,-0.0275,-0.0279,-0.0289,-0.0301,-0.0293,-0.0294,-0.0299,-0.0307,-0.0326,-0.0327,-0.0344,-0.0327,-0.0328,-0.0329,-0.0329,-0.0357,-0.0357,0,0,0,0,0,0,-0.0207,-0.0225,-0.0246,-0.025,-0.023,-0.0275,-0.028,-0.0277,-0.0303,-0.0306,-0.0299,-0.03,-0.0325,-0.0326,-0.0327,-0.0345,-0.0328,-0.0329,-0.033,-0.0357,-0.0357,-0.0357,0,0,0,0,0,0,-0.0207,-0.0208,-0.0243,-0.0238,-0.0245,-0.0275,-0.0273,-0.0279,-0.0276,-0.0308,-0.031,-0.0288,-0.0324,-0.0326,-0.0336,-0.0345,-0.033,-0.033,-0.0356,-0.0357,-0.0357,-0.0384,0,0,0,0,0,0,-0.0205,-0.0208,-0.02,-0.0236,-0.0244,-0.0264,-0.0274,-0.0281,-0.0281,-0.0281,-0.0299,-0.0301,-0.0324,-0.0334,-0.0337,-0.0346,-0.0331,-0.0356,-0.0356,-0.0357,-0.0383,-0.0385,-0.0387,0,0,0,0,0,-0.0204,-0.0202,-0.0199,-0.0202,-0.0233,-0.0264,-0.0272,-0.0294,-0.028,-0.0286,-0.0301,-0.0299,-0.0338,-0.0336,-0.0338,-0.0348,-0.0356,-0.0356,-0.0357,-0.0382,-0.0385,-0.0387,0,0,0,0,0,0,-0.0191,-0.0206,-0.0203,-0.0205,-0.0226,-0.0267,-0.0276,-0.0277,-0.0295,-0.0289,-0.0306,-0.031,-0.0323,-0.0326,-0.0322,-0.0355,-0.0344,-0.0345,-0.0363,-0.0365,-0.0367,-0.0391,-0.0332,0,0,0,0,0,-0.0181,-0.0187,-0.0203,-0.0209,-0.0211,-0.0234,-0.0245,-0.0257,-0.0278,-0.0284,-0.0299,-0.0312,-0.0331,-0.0338,-0.0356,-0.0372,-0.038,-0.0377,-0.0379,-0.0381,-0.0401,-0.0397,-0.0401,-0.0358,-0.0358,-0.0358,0,0,-0.018,-0.019,-0.0192,-0.0207,-0.0223,-0.0249,-0.024,-0.0255,-0.0287,-0.0281,-0.0319,-0.0317,-0.0335,-0.0366,-0.037,-0.0366,-0.0401,-0.0381,-0.0383,-0.0403,-0.0398,-0.0402,-0.0406,-0.0359,-0.0359,-0.0358,0,0,-0.0204,-0.0182,-0.0202,-0.0209,-0.0227,-0.0248,-0.0241,-0.0268,-0.0284,-0.0316,-0.0321,-0.0324,-0.0354,-0.0378,-0.0391,-0.0408,-0.041,-0.0402,-0.0437,-0.0433,-0.0437,-0.044,-0.0476,-0.0482,-0.0405,-0.0405,-0.0405,0,-0.0205,-0.0234,-0.0215,-0.0234,-0.025,-0.0242,-0.0273,-0.0294,-0.0326,-0.0341,-0.033,-0.0366,-0.037,-0.0408,-0.0425,-0.0415,-0.0424,-0.0428,-0.0437,-0.044,-0.0443,-0.0479,-0.0485,-0.0407,-0.0407,-0.0406,-0.0406,0,-0.0257,-0.0267,-0.0277,-0.0304,-0.0308,-0.0336,-0.0347,-0.0364,-0.037,-0.0388,-0.041,-0.0419,-0.044,-0.0434,-0.0445,-0.0468,-0.0473,-0.0437,-0.0433,-0.0449,-0.0486,-0.0492,-0.0409,-0.0408,-0.0408,-0.0407,0,0,-0.0307,-0.0318,-0.0327,-0.0344,-0.0348,-0.0369,-0.0399,-0.0441,-0.0463,-0.0472,-0.0505,-0.0527,-0.0504,-0.0517,-0.0507,-0.0508,-0.0541,-0.049,-0.0489,-0.0532,-0.0564,-0.0531,-0.0535,-0.05,-0.0501,-0.0501,-0.0588,0,-0.0371,-0.0435,-0.0417,-0.0471,-0.0495,-0.0475,-0.0507,-0.0521,-0.0533,-0.0557,-0.0545,-0.0567,-0.0543,-0.0546,-0.0544,-0.0539,-0.0556,-0.0523,-0.0537,-0.0539,-0.0511,-0.054,-0.0504,-0.0593,-0.0594,-0.0595,-0.0596,0,-0.0441,-0.0475,-0.0541,-0.0556,-0.0562,-0.0589,-0.0622,-0.0648,-0.0653,-0.065,-0.0645,-0.0628,-0.0646,-0.0604,-0.0622,-0.0601,-0.0598,-0.0588,-0.059,-0.0557,-0.0516,-0.0567,-0.0608,-0.0607,-0.0606,-0.0605,-0.0605,0,-0.051,-0.0561,-0.0626,-0.0631,-0.0643,-0.0668,-0.0683,-0.0683,-0.0689,-0.0707,-0.0701,-0.0704,-0.0711,-0.0695,-0.0676,-0.0654,-0.0685,-0.0646,-0.0624,-0.0623,-0.0615,-0.061,-0.0664,-0.0664,-0.0663,-0.0663,-0.0663,0,-0.0581,-0.0626,-0.0669,-0.0692,-0.0754,-0.073,-0.0777,-0.078,-0.0765,-0.0753,-0.0752,-0.0738,-0.0729,-0.073,-0.0707,-0.0694,-0.0712,-0.0654,-0.064,-0.0627,-0.0622,-0.0621,-0.0615,-0.0667,-0.0666,-0.0665,-0.0665,0,-0.0615,-0.0655,-0.0716,-0.0762,-0.0778,-0.0814,-0.0815,-0.081,-0.0821,-0.0804,-0.0804,-0.0787,-0.0786,-0.078,-0.0772,-0.0742,-0.0724,-0.0713,-0.0744,-0.0727,-0.0668,-0.0663,-0.0716,-0.0716,-0.0715,-0.0715,-0.0715,0,-0.0623,-0.0668,-0.0758,-0.0767,-0.0784,-0.0832,-0.0819,-0.0834,-0.0811,-0.081,-0.078,-0.0801,-0.0784,-0.0767,-0.0762,-0.0756,-0.0728,-0.0749,-0.0678,-0.0691,-0.0673,-0.0667,-0.0662,-0.0714,-0.0714,-0.0714,-0.0714,0,-0.0601,-0.0655,-0.0685,-0.0737,-0.075,-0.0772,-0.0774,-0.077,-0.0756,-0.0797,-0.074,-0.073,-0.0741,-0.0732,-0.0749,-0.0723,-0.0748,-0.0744,-0.0744,-0.0678,-0.0689,-0.067,-0.0665,-0.0712,-0.0713,-0.0713,-0.0713,0,-0.0534,-0.0568,-0.0606,-0.0646,-0.0665,-0.0651,-0.0702,-0.0665,-0.0666,-0.0678,-0.0666,-0.0676,-0.0716,-0.0715,-0.0709,-0.0709,-0.069,-0.0668,-0.0672,-0.0674,-0.0615,-0.062,-0.0629,0,0,0,0,0,-0.0416,-0.0445,-0.0484,-0.0511,-0.054,-0.0555,-0.0596,-0.0635,-0.0684,-0.0621,-0.0639,-0.0631,-0.0628,-0.0645,-0.0634,-0.0692,-0.0693,-0.0679,-0.067,-0.0704,-0.0706,-0.0638,0,0,0,0,0,0,-0.0334,-0.0358,-0.0436,-0.0378,-0.0374,-0.0381,-0.0412,-0.0461,-0.0454,-0.0519,-0.0524,-0.0589,-0.0601,-0.0604,-0.0609,-0.062,-0.0605,-0.0712,-0.0711,-0.0703,-0.0705,-0.0706,-0.0637,0,0,0,0,0]},{"header":{"parameterUnit":"m.s-1","parameterCategory":2,"la1":30.2991,"la2":30.254,"lo1":-89.0895,"lo2":-89.0444,"dy":0.0017,"dx":0.0017,"nx":28,"ny":28,"refTime":"2023-10-27T21:00:00:Z","depth":"4","parameterNumber":3,"parameterNumberName":"V-component_of_CURRENTS"},"data":[0,0,0,0,0,0,0,0,0,0,0,0,0,0,0,0,0,0,0,0,0,0,0,0,0,0,0,0,0,0,0,0,0,0,0,0,0,0,0,0,0,0,0,0,0,0,0,0,0,0,0,0,0,0,0,0,0,0,0.0124,0.0124,0,0.0148,0.0148,0.0149,0.0176,0.0177,0.0177,0.0177,0.021,0.0211,0.0211,0,0,0,0,0,0,0,0,0,0,0,0,0,0.0134,0.0133,0.0124,0.0124,0.0124,0.0148,0.0148,0.0149,0.0176,0.0177,0.0177,0.0177,0.021,0.021,0.0211,0,0,0,0,0,0,0,0,0,0,0,0,0,0.0142,0.0133,0.0124,0.014,0.0141,0.0148,0.0148,0.0149,0.0176,0.0177,0.0177,0.0177,0.021,0.021,0.0211,0.0208,0,0,0.0214,0.0214,0,0,0,0,0,0,0,0,0.0141,0.0142,0.0137,0.0139,0.0141,0.0159,0.0164,0.0169,0.0176,0.0164,0.0177,0.0178,0.0192,0.0195,0.02,0.0209,0.0211,0.0214,0.0215,0.0215,0.0215,0,0,0,0,0,0,0,0.0141,0.0141,0.0135,0.0137,0.0139,0.0157,0.0158,0.0165,0.0177,0.0165,0.0167,0.0168,0.0194,0.0199,0.0201,0.0211,0.0214,0.0215,0.0215,0.0216,0.0284,0.0285,0,0,0,0,0,0,0.0133,0.014,0.0134,0.0135,0.0141,0.0156,0.0158,0.0153,0.0176,0.018,0.0167,0.0169,0.0197,0.02,0.0202,0.0236,0.0215,0.0216,0.0216,0.0282,0.0284,0.0285,0,0,0,0,0,0,0.0133,0.0132,0.0133,0.0138,0.0139,0.0155,0.015,0.0153,0.0154,0.0178,0.0182,0.0164,0.0198,0.0201,0.0229,0.0237,0.0216,0.0217,0.0281,0.0283,0.0285,0.0281,0,0,0,0,0,0,0.0133,0.0132,0.0125,0.0137,0.0138,0.0136,0.015,0.0154,0.0154,0.0156,0.0176,0.018,0.0198,0.0228,0.023,0.0237,0.0218,0.0279,0.0282,0.0284,0.028,0.0283,0.0286,0,0,0,0,0,0.0133,0.0132,0.0124,0.0123,0.0128,0.0135,0.0138,0.0152,0.0153,0.0154,0.0184,0.0179,0.0244,0.0229,0.0232,0.0239,0.0278,0.0281,0.0284,0.0279,0.0282,0.0285,0,0,0,0,0,0,0.0142,0.0135,0.0126,0.0124,0.0124,0.014,0.0142,0.0144,0.0166,0.0165,0.0191,0.0198,0.0228,0.0236,0.0219,0.027,0.0262,0.0265,0.0257,0.026,0.0263,0.025,0.0218,0,0,0,0,0,0.0135,0.0123,0.0124,0.0118,0.0118,0.0123,0.0126,0.0128,0.0148,0.0156,0.0172,0.02,0.0242,0.0252,0.0279,0.0296,0.0299,0.0307,0.0309,0.0311,0.0305,0.0315,0.0317,0.0295,0.0295,0.0295,0,0,0.0139,0.0128,0.0125,0.0117,0.0117,0.012,0.0126,0.0123,0.0139,0.0156,0.018,0.0205,0.0251,0.0285,0.0298,0.029,0.0325,0.0315,0.0316,0.0308,0.0318,0.032,0.0322,0.0297,0.0296,0.0296,0,0,0.0132,0.0126,0.0111,0.011,0.0099,0.0109,0.0104,0.0109,0.0127,0.0148,0.0181,0.0215,0.0249,0.0294,0.0323,0.0355,0.0342,0.0357,0.0353,0.0364,0.0365,0.0366,0.0387,0.039,0.0354,0.0354,0.0354,0,0.0131,0.0113,0.011,0.0097,0.01,0.0103,0.0098,0.0123,0.0138,0.0155,0.0156,0.0226,0.0261,0.0325,0.0347,0.036,0.0358,0.0333,0.0364,0.0365,0.0366,0.0388,0.0391,0.0355,0.0355,0.0355,0.0355,0,0.0112,0.0101,0.0096,0.008,0.0086,0.0081,0.0108,0.0115,0.0129,0.0152,0.0198,0.0247,0.0286,0.031,0.0341,0.0375,0.037,0.0367,0.0347,0.0368,0.0391,0.0394,0.0355,0.0355,0.0355,0.0355,0,0,0.0098,0.0083,0.0085,0.0067,0.0074,0.0073,0.0105,0.0133,0.0146,0.0175,0.0196,0.0284,0.0288,0.0322,0.0357,0.0371,0.0396,0.0365,0.0365,0.0372,0.0415,0.0372,0.0372,0.0381,0.0381,0.0382,0.0433,0,0.0079,0.0057,0.0063,0.0051,0.0038,0.006,0.0089,0.0117,0.0146,0.0168,0.0229,0.0268,0.0304,0.0314,0.0338,0.038,0.0401,0.0382,0.0407,0.0408,0.0354,0.0373,0.0382,0.0435,0.0436,0.0437,0.0437,0,0.0045,0.0037,0.0024,0.0018,0.0018,0.002,0.0045,0.0072,0.0125,0.0147,0.0187,0.0227,0.0289,0.0294,0.0371,0.0348,0.0382,0.0408,0.041,0.0368,0.037,0.041,0.0443,0.0442,0.0442,0.0441,0.0441,0,0.0009,0.0003,-0.0008,-0.0008,-0.0002,-0.0001,0.0011,0.0055,0.0075,0.0127,0.0132,0.0207,0.024,0.0284,0.0359,0.0357,0.0414,0.0424,0.0423,0.0421,0.0445,0.0443,0.0464,0.0464,0.0463,0.0463,0.0463,0,-0.003,-0.0046,-0.0031,-0.0043,-0.0063,-0.0038,-0.0045,-0.002,0.0018,0.0028,0.0112,0.0125,0.0232,0.0284,0.0339,0.0388,0.0407,0.0421,0.0426,0.0447,0.0445,0.0448,0.0446,0.0465,0.0465,0.0464,0.0464,0,-0.0094,-0.0076,-0.0106,-0.0092,-0.0095,-0.0113,-0.0105,-0.0102,-0.0051,-0.0044,-0.0028,0.0071,0.0143,0.0243,0.0329,0.0366,0.0415,0.0428,0.0449,0.0455,0.0424,0.0422,0.0436,0.0434,0.0433,0.0433,0.0432,0,-0.0133,-0.0151,-0.0157,-0.0173,-0.0178,-0.0191,-0.0198,-0.0155,-0.0142,-0.0088,-0.0086,-0.0001,0.0065,0.0163,0.0267,0.0377,0.0389,0.0422,0.0423,0.0416,0.0419,0.0418,0.0417,0.043,0.043,0.043,0.0429,0,-0.0206,-0.0205,-0.0218,-0.0245,-0.0265,-0.0282,-0.0282,-0.0281,-0.0224,-0.0191,-0.0146,-0.0072,0.0012,0.0129,0.0223,0.0297,0.0402,0.0412,0.0415,0.0416,0.0409,0.0414,0.0414,0.0426,0.0426,0.0427,0.0427,0,-0.0255,-0.0282,-0.0282,-0.0309,-0.0333,-0.0341,-0.0347,-0.0321,-0.03,-0.0226,-0.0228,-0.0119,-0.0042,0.0085,0.0156,0.024,0.0263,0.0283,0.0293,0.0299,0.024,0.0211,0.0166,0,0,0,0,0,-0.0283,-0.0299,-0.0337,-0.0351,-0.0374,-0.0375,-0.0374,-0.0359,-0.032,-0.0306,-0.0259,-0.0188,-0.0059,0.0012,0.0086,0.0144,0.0282,0.0231,0.0312,0.0406,0.041,0.036,0,0,0,0,0,0,-0.0295,-0.0326,-0.034,-0.0365,-0.0378,-0.0393,-0.0391,-0.0374,-0.0345,-0.0306,-0.0231,-0.0189,-0.005,-0.0104,0.0081,0.0109,0.0164,0.0303,0.0304,0.0403,0.0407,0.041,0.0361,0,0,0,0,0]}]]